Location: Bijele Vode
(45.2833°N, 16.2000°E)
Time: 01:27:43
(UTC+00:00)

Spot 2 Rocket - Pass Details

Date: 18 September 2020
Orbit: 758 x 771 km, 98.6° (Epoch: 26 October)

Event Time Altitude Azimuth Distance (km) Brightness Sun altitude
Exits shadow 19:48:06 46° 16° (NNE) 1,016 4.1 -28.5°
Drops below altitude 10° 19:51:49 10° 352° (N) 2,298 6.5 -29.0°
Sets 19:54:08 0° 350° (N) 3,228 7.4 -29.4°
